CW2057 Weather Reports


Display with metric or nautical units.
time (UTC)temp
F
wind
direction
speed
MPH
gust
MPH
rain 1hr
in
rain 24hr
in
rain mn
in
humidity
%
barometer
mb
20260504060122 43 253 0.0 0.0 0.00 0.00 0.00 74 1016.4
20260504050629 43 321 0.0 0.0 0.00 0.00 0.00 75 1016.3
20260504050117 43 321 0.0 0.0 0.00 0.00 0.00 75 1016.3
20260504045626 43 321 0.0 0.0 0.00 0.00 0.00 74 1016.3
20260504045116 43 321 0.0 0.0 0.00 0.00 0.00 74 1016.3
20260504044624 43 321 0.0 0.0 0.00 0.00 0.00 74 1016.3
20260504044114 43 321 0.0 0.0 0.00 0.00 0.00 74 1016.4
20260504043623 43 321 0.0 0.0 0.00 0.00 0.00 74 1016.3
20260504043132 43 321 0.0 0.0 0.00 0.00 0.00 74 1016.3
20260504042618 43 321 0.0 0.0 0.00 0.00 0.00 74 1016.3
20260504042126 43 321 0.0 0.0 0.00 0.00 0.00 72 1016.4
20260504041615 44 321 0.0 0.0 0.00 0.00 0.00 70 1016.3
20260504041140 45 321 0.0 0.0 0.00 0.00 0.00 69 1016.4
20260504040629 45 322 0.0 0.0 0.00 0.00 0.00 69 1016.3
20260504040117 45 321 0.0 2.0 0.00 0.00 0.00 70 1016.3
20260504035622 44 321 1.0 2.0 0.00 0.00 0.00 72 1016.3
20260504035131 44 229 0.0 2.0 0.00 0.00 0.00 69 1016.2
20260504034620 44 240 0.0 0.0 0.00 0.00 0.00 72 1016.1
20260504034129 44 240 0.0 0.0 0.00 0.00 0.00 70 1016.2
20260504033617 45 238 0.0 0.0 0.00 0.00 0.00 67 1016.1
20260504033125 46 238 0.0 0.0 0.00 0.00 0.00 65 1016.1
20260504032654 46 311 0.0 0.0 0.00 0.00 0.00 66 1015.9
20260504032122 45 311 0.0 0.0 0.00 0.00 0.00 69 1015.8
20260504031631 45 311 0.0 0.0 0.00 0.00 0.00 70 1015.8
20260504031119 45 311 0.0 0.0 0.00 0.00 0.00 68 1015.8
20260504030627 46 311 0.0 0.0 0.00 0.00 0.00 65 1015.8
20260504030117 47 311 0.0 0.0 0.00 0.00 0.00 64 1015.8
20260504025625 47 311 0.0 0.0 0.00 0.00 0.00 66 1015.7
20260504025114 45 311 0.0 0.0 0.00 0.00 0.00 69 1015.8
20260504024623 45 311 0.0 0.0 0.00 0.00 0.00 66 1015.7
20260504024148 46 311 0.0 0.0 0.00 0.00 0.00 66 1015.8
20260504023616 46 311 0.0 0.0 0.00 0.00 0.00 64 1015.8
20260504023125 46 311 0.0 0.0 0.00 0.00 0.00 63 1015.8
20260504022635 47 311 0.0 0.0 0.00 0.00 0.00 61 1015.8
20260504022123 48 311 0.0 0.0 0.00 0.00 0.00 61 1015.9
20260504021631 49 311 0.0 0.0 0.00 0.00 0.00 59 1015.8
20260504021119 48 311 0.0 0.0 0.00 0.00 0.00 61 1015.7
20260504020627 48 311 0.0 0.0 0.00 0.00 0.00 60 1015.6
20260504020117 48 311 0.0 0.0 0.00 0.00 0.00 60 1015.7
20260504015625 49 311 0.0 0.0 0.00 0.00 0.00 58 1015.6
20260504015115 49 311 0.0 0.0 0.00 0.00 0.00 57 1015.6
20260504014619 49 311 0.0 0.0 0.00 0.00 0.00 59 1015.6
20260504014128 49 311 0.0 0.0 0.00 0.00 0.00 60 1015.6
20260504013637 49 311 0.0 0.0 0.00 0.00 0.00 59 1015.6
20260504013125 49 311 0.0 0.0 0.00 0.00 0.00 55 1015.6
20260504012613 50 311 0.0 0.0 0.00 0.00 0.00 57 1015.6
20260504012117 50 311 0.0 0.0 0.00 0.00 0.00 54 1015.6
20260504011626 51 311 0.0 0.0 0.00 0.00 0.00 54 1015.6
20260504011115 51 311 0.0 0.0 0.00 0.00 0.00 54 1015.6
20260504010644 51 311 0.0 0.0 0.00 0.00 0.00 51 1015.4
20260504010132 52 311 0.0 0.0 0.00 0.00 0.00 52 1015.3
20260504005622 52 311 0.0 0.0 0.00 0.00 0.00 51 1015.2
20260504005130 52 311 0.0 0.0 0.00 0.00 0.00 54 1015.3
20260504004619 52 311 0.0 0.0 0.00 0.00 0.00 50 1015.2
20260504004127 52 311 0.0 0.0 0.00 0.00 0.00 49 1015.1
20260504003617 53 311 0.0 0.0 0.00 0.00 0.00 47 1015.1
20260504003125 53 311 0.0 0.0 0.00 0.00 0.00 46 1015.1
20260504002614 54 311 0.0 0.0 0.00 0.00 0.00 48 1015.1
20260504002123 54 311 0.0 0.0 0.00 0.00 0.00 44 1015.0
20260504001633 55 311 0.0 0.0 0.00 0.00 0.00 47 1014.8
20260504001121 55 311 0.0 1.0 0.00 0.00 0.00 44 1014.9
20260504000630 56 311 0.0 1.0 0.00 0.00 0.00 41 1014.8
20260504000117 57 311 0.0 1.0 0.00 0.00 0.00 39 1014.8
20260503235626 57 307 0.0 1.0 0.00 0.00 0.00 40 1014.7
20260503235115 57 307 0.0 2.0 0.00 0.00 0.00 37 1014.7
20260503234625 58 312 1.0 3.0 0.00 0.00 0.00 37 1014.7
20260503234128 58 299 2.0 3.0 0.00 0.00 0.00 35 1014.7
20260503233618 59 312 0.0 3.0 0.00 0.00 0.00 34 1014.5
20260503233126 59 300 1.0 3.0 0.00 0.00 0.00 34 1014.5
20260503232615 59 295 0.0 5.0 0.00 0.00 0.00 33 1014.4
20260503232123 60 304 2.0 5.0 0.00 0.00 0.00 32 1014.4
20260503231632 60 309 1.0 4.0 0.00 0.00 0.00 32 1014.4
20260503231122 60 301 1.0 8.0 0.00 0.00 0.00 31 1014.4
20260503230630 60 11 1.0 8.0 0.00 0.00 0.00 32 1014.4
20260503230119 60 299 2.0 8.0 0.00 0.00 0.00 31 1014.3
20260503225629 61 15 1.0 7.0 0.00 0.00 0.00 33 1014.2
20260503225118 61 314 1.0 7.0 0.00 0.00 0.00 32 1014.4
20260503224627 61 288 2.0 4.0 0.00 0.00 0.00 32 1014.4
20260503224116 61 309 2.0 7.0 0.00 0.00 0.00 31 1014.4
20260503223624 61 340 3.0 7.0 0.00 0.00 0.00 32 1014.4
20260503223132 61 295 2.0 7.0 0.00 0.00 0.00 31 1014.4
20260503222620 61 300 3.0 7.0 0.00 0.00 0.00 30 1014.4
20260503222129 61 328 1.0 5.0 0.00 0.00 0.00 30 1014.4
20260503221619 61 34 2.0 9.0 0.00 0.00 0.00 30 1014.4
20260503221128 61 92 3.0 15.0 0.00 0.00 0.00 30 1014.4
20260503220617 62 331 5.0 15.0 0.00 0.00 0.00 30 1014.5
20260503220126 62 313 4.0 11.0 0.00 0.00 0.00 30 1014.4
20260503215636 62 293 3.0 11.0 0.00 0.00 0.00 31 1014.4
20260503215118 62 316 3.0 11.0 0.00 0.00 0.00 30 1014.5
20260503214627 62 20 4.0 12.0 0.00 0.00 0.00 29 1014.4
20260503214115 62 20 3.0 12.0 0.00 0.00 0.00 29 1014.5
20260503213644 62 281 7.0 12.0 0.00 0.00 0.00 29 1014.4
20260503213132 62 343 5.0 12.0 0.00 0.00 0.00 29 1014.5
20260503212621 62 287 3.0 12.0 0.00 0.00 0.00 30 1014.5
20260503212129 63 288 3.0 9.0 0.00 0.00 0.00 31 1014.4
20260503211619 62 353 3.0 9.0 0.00 0.00 0.00 31 1014.4
20260503211127 62 5 3.0 10.0 0.00 0.00 0.00 29 1014.3
20260503210635 62 9 1.0 12.0 0.00 0.00 0.00 32 1014.4
20260503210123 62 300 5.0 16.0 0.00 0.00 0.00 29 1014.4
20260503205632 62 308 7.0 16.0 0.00 0.00 0.00 29 1014.4
20260503205120 62 71 2.0 11.0 0.00 0.00 0.00 30 1014.5
20260503204630 62 308 4.0 13.0 0.00 0.00 0.00 29 1014.5
20260503204118 62 290 6.0 13.0 0.00 0.00 0.00 31 1014.4
20260503203628 62 300 5.0 12.0 0.00 0.00 0.00 33 1014.5
20260503203116 61 325 3.0 10.0 0.00 0.00 0.00 34 1014.7
20260503202624 61 344 2.0 10.0 0.00 0.00 0.00 33 1014.8
20260503202149 62 12 4.0 10.0 0.00 0.00 0.00 31 1014.9
20260503201617 61 13 3.0 8.0 0.00 0.00 0.00 32 1014.9
20260503201125 61 308 3.0 7.0 0.00 0.00 0.00 31 1014.9
20260503200614 62 286 2.0 7.0 0.00 0.00 0.00 32 1014.9
20260503200122 62 3 4.0 12.0 0.00 0.00 0.00 32 1014.9
20260503195651 62 328 3.0 12.0 0.00 0.00 0.00 35 1015.0
20260503195117 61 14 1.0 6.0 0.00 0.00 0.00 35 1015.2
20260503194627 61 349 2.0 12.0 0.00 0.00 0.00 34 1015.2
20260503194135 61 332 6.0 12.0 0.00 0.00 0.00 32 1015.3
20260503193622 62 332 4.0 11.0 0.00 0.00 0.00 33 1015.5
20260503193151 61 311 3.0 9.0 0.00 0.00 0.00 33 1015.5
20260503192638 61 314 2.0 8.0 0.00 0.00 0.00 36 1015.5
20260503192126 60 39 2.0 8.0 0.00 0.00 0.00 35 1015.5
20260503191615 60 318 4.0 11.0 0.00 0.00 0.00 35 1015.7
20260503191120 59 288 4.0 15.0 0.00 0.00 0.00 35 1015.7
20260503190629 60 5 7.0 15.0 0.00 0.00 0.00 34 1015.6
20260503190119 61 321 4.0 14.0 0.00 0.00 0.00 35 1015.6
20260503185627 61 342 3.0 14.0 0.00 0.00 0.00 35 1015.8
20260503185136 61 300 5.0 14.0 0.00 0.00 0.00 36 1015.9
20260503184623 61 316 4.0 14.0 0.00 0.00 0.00 36 1016.0
20260503184131 59 312 1.0 9.0 0.00 0.00 0.00 38 1016.0
20260503183620 59 300 1.0 11.0 0.00 0.00 0.00 36 1015.9
20260503183148 59 299 5.0 11.0 0.00 0.00 0.00 33 1016.0
20260503182635 59 47 2.0 10.0 0.00 0.00 0.00 37 1016.1
20260503182123 60 301 5.0 10.0 0.00 0.00 0.00 36 1016.1
20260503181632 59 32 4.0 8.0 0.00 0.00 0.00 36 1016.1
20260503181141 59 355 2.0 9.0 0.00 0.00 0.00 37 1016.3
20260503180629 59 118 3.0 8.0 0.00 0.00 0.00 37 1016.1
20260503180118 59 4 2.0 7.0 0.00 0.00 0.00 33 1016.3
20260503175621 60 353 3.0 10.0 0.00 0.00 0.00 39 1016.3
20260503175130 59 280 6.0 10.0 0.00 0.00 0.00 34 1016.3
20260503174619 59 7 2.0 10.0 0.00 0.00 0.00 38 1016.4
20260503174127 56 287 5.0 9.0 0.00 0.00 0.00 37 1016.5
20260503173615 57 14 4.0 9.0 0.00 0.00 0.00 42 1016.4
20260503173124 58 329 3.0 15.0 0.00 0.00 0.00 35 1016.6
20260503172614 58 20 4.0 15.0 0.00 0.00 0.00 38 1016.6
20260503172122 58 328 5.0 11.0 0.00 0.00 0.00 36 1016.4
20260503171631 58 5 3.0 11.0 0.00 0.00 0.00 40 1016.5
20260503171120 57 336 1.0 9.0 0.00 0.00 0.00 40 1016.6
20260503170627 58 251 3.0 8.0 0.00 0.00 0.00 39 1016.7
20260503170117 57 353 4.0 8.0 0.00 0.00 0.00 38 1016.7
20260503160130 57 351 3.0 14.0 0.00 0.00 0.00 40 1017.1
20260503150625 54 349 3.0 11.0 0.00 0.00 0.00 41 1017.2
20260503150135 53 10 3.0 11.0 0.00 0.00 0.00 38 1017.2
20260503140145 51 338 3.0 9.0 0.00 0.00 0.00 41 1017.3
20260503131120 49 225 2.0 9.0 0.00 0.00 0.00 48 1017.3
20260503130629 49 29 1.0 9.0 0.00 0.00 0.00 51 1017.3
20260503130117 48 317 2.0 9.0 0.00 0.00 0.00 50 1017.3
20260503120122 43 10 2.0 9.0 0.00 0.00 0.00 63 1016.9
20260503110628 40 268 1.0 5.0 0.00 0.00 0.00 68 1016.5
20260503110118 40 359 2.0 4.0 0.00 0.00 0.00 68 1016.4
20260503100116 40 6 1.0 3.0 0.00 0.00 0.00 69 1015.4
20260503090114 40 315 1.0 4.0 0.00 0.00 0.00 72 1015.0
20260503081630 41 325 0.0 4.0 0.00 0.00 0.00 71 1014.6
20260503081118 41 319 1.0 4.0 0.00 0.00 0.00 71 1014.6
20260503080626 41 317 0.0 4.0 0.00 0.00 0.00 71 1014.6
20260503080116 41 315 1.0 4.0 0.00 0.00 0.00 70 1014.5
20260503072614 41 319 1.0 4.0 0.00 0.00 0.00 71 1014.3
20260503072121 41 356 1.0 4.0 0.00 0.00 0.00 71 1014.2
20260503071630 41 326 1.0 3.0 0.00 0.00 0.00 71 1014.3
20260503071117 41 22 0.0 2.0 0.00 0.00 0.00 71 1014.2
20260503070626 41 339 0.0 1.0 0.00 0.00 0.00 71 1014.2
20260503070115 42 339 0.0 0.0 0.00 0.00 0.00 70 1014.0